Regional Weather Roundup
Issued by NWS Northern Indiana

Home | Current Version | Previous Version | Graphics & Text | Print | Product List | Glossary On
Versions: 1 2 3 4 5 6 7 8 9 10 11 12 13 14 15 16 17 18 19 20 21 22 23 24 25 26 27 28 29 30 31 32 33 34 35 36 37 38 39 40 41 42 43 44 45 46 47 48 49 50
000
ASUS43 KIWX 152110
RWRIWX

KIWX WEATHER ROUNDUP
NATIONAL WEATHER SERVICE NORTHERN INDIANA
400 PM EST SUN JAN 15 2017

NOTE: "FAIR" INDICATES FEW OR NO CLOUDS BELOW 12,000 FEET WITH NO
SIGNIFICANT WEATHER AND/OR OBSTRUCTIONS TO VISIBILITY.

* THESE STATIONS ARE NOT UNDER NWS QUALITY CONTROL. THEY ALSO MAY NOT
  REPORT WEATHER SUCH AS PRECIPITATION OR FOG.

INZ001>027-152200-
NORTHERN INDIANA

CITY           SKY/WX    TMP DP  RH WIND       PRES   REMARKS
GARY*          PTSUNNY   36  23  60 SW5       30.37S
VALPARAISO     MOSUNNY   34  28  79 S3        30.36S
LAPORTE*       CLOUDY    33  26  73 SE3       30.36R
KNOX*          CLOUDY    34   7  32 CALM      30.35S
SOUTH BEND     CLOUDY    35  24  64 CALM      30.36S
GOSHEN         MOSUNNY   34  23  64 S6        30.35S WCI  29
ROCHESTER*     CLOUDY    36  27  69 E3        30.35S
WARSAW*        CLOUDY    32  16  51 SE3       30.35S
FORT WAYNE     CLOUDY    33  21  61 E5        30.36F WCI  29
PERU/GRISSOM   CLOUDY    33  27  76 E3        30.33R
MARION*        PTSUNNY   34  27  75 E5        30.35S HAZE    WCI  30

$$
INZ028>050-152200-
CENTRAL INDIANA

CITY           SKY/WX    TMP DP  RH WIND       PRES   REMARKS
LAFAYETTE      PTSUNNY   35  26  69 E7        30.35R WCI  29
KOKOMO*        CLOUDY    33  27  78 E6        30.35S WCI  28
MUNCIE*        PTSUNNY   35  29  78 E7        30.34R WCI  29
INDIANAPOLIS   CLOUDY    35  29  78 E3        30.33S FOG

$$
MIZ043>046-050>051-056>058-064>065-071>073-077>080-152200-
SOUTHWEST LOWER MICHIGAN

CITY           SKY/WX    TMP DP  RH WIND       PRES   REMARKS
BATTLE CREEK   CLOUDY    35  21  56 SW6       30.34S WCI  30
BENTON HARBOR  SUNNY     35  22  58 W7        30.36R WCI  29
COLDWATER*     MOSUNNY   34  24  67 SW3       30.34S
HILLSDALE*     MOSUNNY   32  25  74 S5        30.33S WCI  27
HOLLAND        SUNNY     35  24  64 SW10      30.35S WCI  27
GRAND RAPIDS   PTSUNNY   36  24  62 SW9       30.33S
KALAMAZOO      CLOUDY    36  16  44 SW7       30.34F
STURGIS*       MOSUNNY   32  24  71 CALM      30.34S
THREE RIVERS*  FAIR      33  25  74 SW3       30.35S

$$
OHZ001>008-015>018-024>025-152200-
NORTHWEST OHIO

CITY           SKY/WX    TMP DP  RH WIND       PRES   REMARKS
DEFIANCE       PTSUNNY   34  19  54 CALM      30.37F
FINDLAY        CLOUDY    33  23  66 S6        30.36S WCI  28
TOLEDO EXPRESS CLOUDY    31  21  66 SW5       30.37F WCI  26
TOLEDO METCALF MOSUNNY   32  22  66 SW5       30.39S WCI  27
LIMA           CLOUDY    33  27  78 E3        30.35S

$$
AND FOR LAKE MICHIGAN COASTAL AND OPEN LAKE BUOY OBSERVATIONS

STATION/POSITION TEMP    WIND        PRES    VSBY  WAVE
                 AIR SEA DIR/SP/G                  HT/PER
                 (F)     (DEG/KT/KT) (MB)    (MI)  (FT/S)
CALUMET HARBOR    31     100/  4/  5 1027.3R
MICHIGAN CITY     35     320/  2/  3   N/A
BURNS HARBOR      31      10/  3/  4 1028.4S

$$
&&




USA.gov is the U.S. government's official web portal to all federal, state and local government web resources and services.